Regional Weather Roundup
Issued by NWS Albany, NY

Home | Current Version | Previous Version | Text Only | Print | Product List | Glossary On
Versions: 1 2 3 4 5 6 7 8 9 10 11 12 13 14 15 16 17 18 19 20 21 22 23 24 25 26 27
000
ASUS41 KALY 221410
RWRALY

NEW YORK STATE HOURLY WEATHER ROUNDUP
NATIONAL WEATHER SERVICE ALBANY NY
1000 AM EDT WED OCT 22 2014

NOTE: "FAIR" INDICATES FEW OR NO CLOUDS BELOW 12,000 FEET WITH NO
SIGNIFICANT WEATHER AND/OR NO OBSTRUCTIONS TO VISIBILITY.

NYZ032-033-038>043-046>054-057>066-NYZ062>081-221500-
EAST


CITY           SKY/WX    TMP DP  RH WIND       PRES   REMARKS
ALBANY         CLOUDY    50  44  80 N10       30.10R
GLENS FALLS    CLOUDY    51  44  77 N14       30.12S
POUGHKEEPSIE   CLOUDY    52  47  83 N10       30.01R
NEWBURGH       CLOUDY    52  48  87 NE12G17   30.01R
MONTGOMERY     CLOUDY    52  47  83 NE17      29.99S
WHITE PLAINS   LGT RAIN  53  49  86 N12       29.94S
ISLIP          LGT RAIN  55  52  89 N15G22    29.90S
NEW YORK CITY  LGT RAIN  55  51  86 NE15G23   29.93S
CENTRAL PARK   CLOUDY    55  51  86 VRB7      29.96S
$$

NYZ005>009-017-018-044>046-055-056-221500-
CENTRAL


CITY           SKY/WX    TMP DP  RH WIND       PRES   REMARKS
FULTON         PTSUNNY   48  42  80 N8        30.17R
SYRACUSE       CLOUDY    48  44  87 N8        30.15R
ROME           PTSUNNY   50  45  83 N7        30.14R
ELMIRA         CLOUDY    47  45  93 NE10G22   30.11R
BINGHAMTON     CLOUDY    48  45  89 NE10G21   30.07R
MONTICELLO     CLOUDY    48  46  93 NE6       30.01S
$$

NYZ026>034-041>043-221500-
NORTH


CITY           SKY/WX    TMP DP  RH WIND       PRES   REMARKS
WATERTOWN      CLOUDY    48  37  65 NE17G24   30.20S
FORT DRUM      NOT AVBL
MASSENA        CLOUDY    46  36  68 NE17G23   30.27R
SARANAC LAKE   CLOUDY    40  39  97 N8        30.17R FOG     WCI  34
PLATTSBURGH    CLOUDY    44  41  89 N16       30.22R
$$

NYZ001>004-010>016-019>021-221500-
WEST


CITY           SKY/WX    TMP DP  RH WIND       PRES   REMARKS
NIAGARA FALLS  CLOUDY    46  39  76 NE9       30.23R
BUFFALO        CLOUDY    46  39  76 N9G18     30.22R
DUNKIRK        CLOUDY    46  41  82 N9        30.22R
JAMESTOWN      CLOUDY    41  37  87 N10       30.19R
WELLSVILLE     FOG       42  40  92 N9        30.14R VSB 1/4
ROCHESTER      CLOUDY    47  40  76 N14       30.20R
PENN YAN       CLOUDY    46  44  93 N10       30.15R
$$

             KEY
       WCI = WIND CHILL INDEX
       VSB = VISIBILITY
       HX  = HEAT INDEX
$$



USA.gov is the U.S. government's official web portal to all federal, state and local government web resources and services.